Flag for Dominican Republic Weather past 2 weeks in Puerto Plata, Dominican Republic

Now
79 °F

Partly sunny.


Feels Like: 82 °F
Forecast: 79 / 89 °F
Wind: No wind

Location: Puerto Plata International

Current Time: Jul 29, 2014 at 7:13:16 AM

Latest Report: Jul 29, 2014 at 7:00 AM


Visibility: N/A

Pressure: 30.01 "Hg

Humidity: 84%

Dew point: 73 °F

Location of Puerto PlataLocation

Historic Weather in Puerto Plata — Graph

°F

Puerto Plata temperature yesterday

Maximum temperature yesterday: 95 °F (at 1:00 PM)
Minimum temperature yesterday: 79 °F (at 5:00 AM)
Average temperature yesterday: 88 °F

Past Weeks' High & Low Weather Summary

 TemperatureHumidityPressure
High99 °F (Jul 16, 2:00 PM)100% (Jul 14, 5:00 AM)30.09 "Hg (Jul 14, 5:00 AM)
Low73 °F (Jul 14, 5:00 AM)42% (Jul 16, 2:00 PM)29.92 "Hg (Jul 15, 6:00 PM)
Average87 °F69%30.02 "Hg
* Reported Jul 14 5:00 AM — Jul 29 5:00 AM, Puerto Plata, Weather by CustomWeather, © 2014

Note: Actual official high and low records may vary slightly from our data, if they occured in-between our weather recording intervals... More about our weather records

Advertising

Puerto Plata weather history for previous 24 hours

 ConditionsComfort  
Time TempWeatherWind HumidityBarometerVisibility
5:00 AM
Jul 29
79 °FPassing clouds.No wind89%29.98 "HgN/A
2:00 AM81 °FPassing clouds.No wind84%29.98 "HgN/A
11:00 PM
Jul 28
82 °FPassing clouds.No wind79%30.04 "HgN/A
8:00 PM84 °FPassing clouds.9 mph74%30.04 "HgN/A
7:00 PM86 °FPassing clouds.21 mph70%30.01 "HgN/A
6:00 PM88 °FPassing clouds.20 mph62%29.98 "HgN/A
5:00 PM91 °FPassing clouds.16 mph56%29.98 "HgN/A
4:00 PM91 °FPassing clouds.23 mph63%29.98 "HgN/A
3:00 PM93 °FPassing clouds.23 mph59%29.98 "HgN/A
2:00 PM93 °FPassing clouds.17 mph59%30.01 "HgN/A
1:00 PM95 °FPassing clouds.17 mph53%30.01 "HgN/A
12:00 PM93 °FPassing clouds.17 mph59%30.04 "HgN/A
11:00 AM93 °FPassing clouds.9 mph49%30.04 "HgN/A
10:00 AM91 °FPassing clouds.9 mph59%30.07 "HgN/A
9:00 AM88 °FPassing clouds.6 mph66%30.07 "HgN/A
8:00 AM82 °FPassing clouds.12 mph79%30.07 "HgN/A
7:00 AM79 °FPassing clouds.No wind89%30.04 "HgN/A
Weather by CustomWeather, © 2014

See weather overviewHow to use our weather pages